Dallas Fort Worth International Airport
KDFW : now visible

Airfield :











YOU CAN JOIN US ON...

 
LOGIN :

Register | Disclaimer

   EN    FR    IT 

 









Legend :    VFR   Marginal VFR   IFR   Intensive IFR   Very Intensive IFR
Visi :
Ceiling :
>= 8 km
>= 3000ft
5 to 8 km
1000 to 3000 ft
1500m to 5 km
500 to 1000 ft
800 to 1500m
200 to 500 ft
< 800m
< 200 ft
Symbols :   Thunderstorms  Fog  Heavy snow  Heavy precipitations  Wind > 20 kt






- Airport Elevation : 607 ft
- IATA code : DFW


KDFW - Dallas Fort Worth International

CURRENT METAR :
  • 081653Z 24014KT 10SM FEW160 SCT250 BKN300 29/21 A2984 RMK AO2 SLP097 T02890206

EXPIRED METARs :
  • 081553Z 23011KT 10SM BKN160 BKN250 27/21 A2985 RMK AO2 SLP099 VIRGA NE-S T02670211
  • 081453Z 21011KT 10SM BKN170 BKN220 BKN300 24/21 A2984 RMK AO2 SLP097 VIRGA ALQDS T02390211 51014

TAF KDFW
Valid from the 08 at 15:00 until the 09 at 18:00 UTC


081456Z 0815/0918 22012KT P6SM BKN200
FM090300 26005KT P6SM SCT250
FM090900 03016KT P6SM SCT250



MET'MAP, your aeronautical weather chart ! - Copyright ORBIFLY December 2007 - Disclaimer

ORBIFLY MET'MAP TEAM :

Programming & Development : Alexandra Zaïnal
Concept & original design : Baudouin d'Aumeries
Assistance for programming : Marc-Olivier Méhu
Technical & hardware support : Manuel Goepfert

Contact : metmap@orbifly.com




SOURCES & CREDITS :

   NOAA       Earth
Advisory